This demonstration page uses our WeatherBlox Daily Observations layout. Learn more.

Left ArrowRight Arrow

34.02893, -84.19858

Hourly Observations for December 10, 2018

Temp ( °F °C ) Dew Point ( °F °C ) Humidity (%) Winds ( mph kmh ) Pressure ( in mb ) Visibility ( mi km ) Precip ( " mm )
12:44 am 00:44 Cloudy with Light Rain 38 3.3 37 2.8 97 97 W 3 6 30.03 1017 4 6 0.00 0.03
12:53 am 00:53 Cloudy with Light Rain 38 3.3 37 2.8 97 97 Calm 30.04 1017 4 6 0.00 0.03
1:53 am 01:53 Cloudy with Light Rain 39 3.9 37 2.8 93 93 WNW 3 6 30.04 1017 5 8 0.02 0.51
2:53 am 02:53 Cloudy with Light Rain 38 3.3 36 2.2 93 93 NW 6 9 30.04 1017 9 14 0.00 0.03
3:53 am 03:53 Cloudy with Light Rain 38 3.3 36 2.2 93 93 WNW 6 9 30.05 1018 5 8 0.00 0.03
4:53 am 04:53 Cloudy 38 3.3 36 2.2 93 93 NNW 5 7 30.05 1018 10 16 0.01 0.25
5:53 am 05:53 Cloudy with Light Rain 38 3.3 36 2.2 93 93 NNW 6 9 30.06 1018 9 14 0.00 0.03
6:53 am 06:53 Cloudy with Light Rain 38 3.3 37 2.8 97 97 W 3 6 30.07 1018 8 13 0.00 0.03
7:53 am 07:53 Cloudy with Mist and Fog 39 3.9 37 2.8 93 93 NW 5 7 30.09 1019 6 10 0.00 0.03
8:53 am 08:53 Cloudy with Light Rain 39 3.9 38 3.3 96 96 NW 3 6 30.11 1020 6 10 0.00 0.03
9:53 am 09:53 Cloudy with Mist and Fog 40 4.4 38 3.3 93 93 NW 5 7 30.14 1021 5 8 0.01 0.25
10:53 am 10:53 Cloudy with Mist and Fog 41 5 38 3.3 89 89 NW 3 6 30.15 1021 5 8 0.00 0.00
11:53 am 11:53 Cloudy with Light Rain 41 5 39 3.9 93 93 NNW 7 11 30.14 1021 3 5 0.00 0.03
11:57 am 11:57 Cloudy with Light Rain 41 5 39 3.9 93 93 NW 7 11 30.12 1020 3 4 0.00 0.03
12:34 pm 12:34 Cloudy with Light Rain 41 5 40 4.4 96 96 NW 5 7 30.12 1020 2 3 0.01 0.25
12:40 pm 12:40 Cloudy with Light Rain 42 5.6 40 4.4 92 92 NW 5 7 30.12 1020 2 3 0.01 0.25
12:50 pm 12:50 Cloudy with Light Rain 41 5 39 4 93 93 WNW 5 7 30.12 1020 2 3 0.02 0.51
12:53 pm 12:53 Cloudy with Light Rain 41 5 39 3.9 93 93 WNW 3 6 30.12 1020 3 4 0.02 0.51
1:53 pm 13:53 Cloudy with Light Rain 42 5.6 40 4.4 92 92 Calm 30.11 1020 3 4 0.01 0.25
2:00 pm 14:00 Cloudy 42 5.6 40 4.4 92 92 Calm 30.12 1020 7 11 0.00 0.03
2:53 pm 14:53 Cloudy with Mist and Fog 43 6.1 40 4.4 89 89 VRB 3 6 30.11 1020 4 6 0.00 0.03
3:53 pm 15:53 Cloudy 43 6.1 40 4.4 89 89 N 5 7 30.12 1020 9 14 0.00 0.00
4:53 pm 16:53 Cloudy with Light Rain 41 5 39 3.9 93 93 NNW 10 17 30.15 1021 4 6 0.03 0.76
5:53 pm 17:53 Cloudy with Light Rain 40 4.4 39 3.9 97 97 NNW 7 11 30.17 1022 10 16 0.03 0.76
6:53 pm 18:53 Cloudy with Light Rain 40 4.4 38 3.3 93 93 NW 6 9 30.19 1022 10 16 0.01 0.25
7:00 pm 19:00 Cloudy with Light Rain 40 4.4 38 3.3 93 93 NW 6 9 30.18 1022 10 16 0.00 0.03
7:53 pm 19:53 Cloudy with Light Rain 40 4.4 38 3.3 93 93 N 3 6 30.19 1022 10 16 0.01 0.25
8:21 pm 20:21 Cloudy 40 4.4 38 3.3 93 93 NNW 5 7 30.18 1022 10 16 0.00 0.03
8:53 pm 20:53 Cloudy with Light Rain 40 4.4 38 3.3 93 93 NW 5 7 30.20 1023 9 14 0.01 0.25
9:53 pm 21:53 Cloudy with Light Rain 40 4.4 38 3.3 93 93 N 5 7 30.21 1023 9 14 0.01 0.25
10:53 pm 22:53 Cloudy 40 4.4 38 3.3 93 93 Calm 30.21 1023 9 14 0.00 0.03
11:53 pm 23:53 Cloudy 40 4.4 38 3.3 93 93 NNW 3 6 30.22 1024 8 13 0.00 0.00

Powered by AerisWeather